OK,157,49,894,157,2014-10-01T01:40:00,0,28072664,210120
OK,157,49,894,157,2014-10-01T01:45:00,0,28073111,210120
OK,157,49,894,157,2014-10-01T01:50:00,0,28073559,210120
OK,157,49,894,157,2014-10-01T01:55:00,0,28073877,210120
OK,157,49,894,157,2014-10-01T02:00:00,0,28074326,210120
OK,157,49,894,157,2014-10-01T02:05:00,0,28074767,210120
OK,157,49,894,157,2014-10-01T02:10:00,0,28075215,210120
OK,157,49,894,157,2014-10-01T02:15:00,0,28075664,210120
OK,157,49,894,157,2014-10-01T02:20:00,0,28076049,210120
OK,157,49,894,157,2014-10-01T02:25:00,0,28076496,210120
OK,157,49,894,157,2014-10-01T02:30:00,0,28076945,210120
OK,157,49,894,157,2014-10-01T02:35:00,0,28077394,210120
OK,157,49,894,157,2014-10-01T02:40:00,0,28077797,210120
OK,157,49,894,157,2014-10-01T02:45:00,0,28078246,210120
OK,157,49,894,157,2014-10-01T02:50:00,0,28078691,210120
OK,157,49,894,157,2014-10-01T02:55:00,0,28079140,210120
OK,157,49,894,157,2014-10-01T03:00:00,0,28079582,210120
OK,157,49,894,157,2014-10-01T03:05:00,0,28080031,210120
OK,157,49,894,157,2014-10-01T03:10:00,0,28080365,210120
OK,157,49,894,157,2014-10-01T03:15:00,0,28080814,210120
OK,157,49,894,157,2014-10-01T03:20:00,0,28081263,210120
OK,157,49,894,157,2014-10-01T03:25:00,0,28081710,210120
OK,157,49,894,157,2014-10-01T03:30:00,0,28082159,210120
OK,157,49,894,157,2014-10-01T03:35:00,0,28082592,210120
OK,157,49,894,157,2014-10-01T03:40:00,0,28083024,210120
OK,157,49,894,157,2014-10-01T03:45:00,0,28083473,210120
OK,157,49,894,157,2014-10-01T03:50:00,0,28083922,210120
OK,157,49,894,157,2014-10-01T03:55:00,0,28084364,210120
OK,157,49,894,157,2014-10-01T04:00:00,0,28084789,210120
OK,157,49,894,157,2014-10-01T04:05:00,0,28085237,210120
OK,157,49,894,157,2014-10-01T04:10:00,0,28085682,210120
OK,157,49,894,157,2014-10-01T04:15:00,0,28086131,210120
OK,1828,4,894,1828,2014-10-01T04:20:00,2,28086573,210120
OK,1828,4,894,1828,2014-10-01T04:25:00,2,28087022,210120
OK,1828,4,894,1828,2014-10-01T04:30:00,0,28087467,210120
OK,1828,4,894,1828,2014-10-01T04:35:00,0,28087916,210120
OK,270,28,894,270,2014-10-01T04:40:00,2,28088341,210120
OK,272,28,894,272,2014-10-01T04:45:00,2,28088789,210120
OK,272,28,894,272,2014-10-01T04:50:00,0,28089219,210120
OK,237,32,894,237,2014-10-01T04:55:00,3,28089668,210120
OK,237,32,894,237,2014-10-01T05:05:00,0,28090117,210120
OK,237,32,894,237,2014-10-01T05:10:00,0,28090910,210120
OK,237,32,894,237,2014-10-01T05:15:00,0,28091359,210120
OK,237,32,894,237,2014-10-01T05:20:00,0,28091776,210120
OK,237,32,894,237,2014-10-01T05:25:00,0,28092225,210120
OK,237,32,894,237,2014-10-01T05:30:00,0,28092669,210120
OK,211,36,894,211,2014-10-01T05:35:00,1,28093110,210120
OK,211,36,894,211,2014-10-01T05:40:00,1,28093541,210120
OK,211,36,894,211,2014-10-01T05:45:00,0,28093990,210120
OK,295,26,894,295,2014-10-01T05:50:00,1,28094402,210120
OK,295,26,894,295,2014-10-01T05:55:00,1,28094846,210120
OK,295,26,894,295,2014-10-01T06:00:00,0,28095293,210120
OK,295,26,894,295,2014-10-01T06:05:00,0,28095742,210120
OK,295,26,894,295,2014-10-01T06:10:00,0,28096155,210120
OK,506,15,894,506,2014-10-01T06:15:00,2,28096604,210120
OK,506,15,894,506,2014-10-01T06:20:00,1,28097038,210120
OK,506,15,894,506,2014-10-01T06:25:00,0,28097487,210120
OK,462,16,894,462,2014-10-01T06:30:00,2,28097936,210120
OK,488,15,894,488,2014-10-01T06:35:00,1,28098374,210120
OK,488,15,894,488,2014-10-01T06:40:00,0,28098817,210120
OK,488,15,894,488,2014-10-01T06:45:00,0,28099265,210120
OK,488,15,894,488,2014-10-01T06:50:00,0,28099608,210120
OK,245,31,894,245,2014-10-01T06:55:00,2,28100057,210120
OK,225,34,894,225,2014-10-01T07:00:00,2,28100364,210120
OK,177,43,894,177,2014-10-01T07:05:00,1,28100813,210120
OK,276,28,894,276,2014-10-01T07:10:00,1,28101184,210120
OK,276,28,894,276,2014-10-01T07:15:00,1,28101633,210120
OK,276,28,894,276,2014-10-01T07:20:00,0,28102069,210120
OK,276,28,894,276,2014-10-01T07:25:00,0,28102518,210120
OK,276,28,894,276,2014-10-01T07:30:00,0,28102948,210120
OK,361,21,894,361,2014-10-01T07:35:00,1,28103392,210120
OK,361,21,894,361,2014-10-01T07:40:00,1,28103837,210120
OK,470,16,894,470,2014-10-01T07:45:00,1,28104282,210120
OK,359,21,894,359,2014-10-01T07:50:00,2,28104724,210120
OK,249,31,894,249,2014-10-01T07:55:00,1,28105168,210120
OK,249,31,894,249,2014-10-01T08:00:00,0,28105608,210120
OK,249,31,894,249,2014-10-01T08:05:00,0,28106057,210120
OK,249,31,894,249,2014-10-01T08:10:00,0,28106494,210120
OK,249,31,894,249,2014-10-01T08:15:00,0,28106900,210120
OK,249,31,894,249,2014-10-01T08:20:00,0,28107332,210120
OK,249,31,894,249,2014-10-01T08:25:00,0,28107781,210120
OK,249,31,894,249,2014-10-01T08:30:00,0,28108220,210120
OK,249,31,894,249,2014-10-01T08:35:00,2,28108669,210120
OK,265,29,894,265,2014-10-01T08:40:00,1,28109097,210120
OK,265,29,894,265,2014-10-01T08:45:00,1,28109546,210120
OK,265,29,894,265,2014-10-01T08:50:00,0,28109889,210120
OK,265,29,894,265,2014-10-01T08:55:00,0,28110338,210120
OK,517,14,894,517,2014-10-01T09:00:00,1,28110761,210120
OK,517,14,894,517,2014-10-01T09:05:00,0,28111210,210120
OK,306,25,894,306,2014-10-01T09:10:00,1,28111639,210120
OK,306,25,894,306,2014-10-01T09:15:00,1,28112088,210120
OK,306,25,894,306,2014-10-01T09:20:00,0,28112429,210120
OK,306,25,894,306,2014-10-01T09:25:00,0,28112878,210120
OK,306,25,894,306,2014-10-01T09:30:00,0,28113302,210120
OK,306,25,894,306,2014-10-01T09:35:00,0,28113751,210120
OK,306,25,894,306,2014-10-01T09:40:00,0,28114183,210120
OK,306,25,894,306,2014-10-01T09:45:00,0,28114632,210120
OK,306,25,894,306,2014-10-01T09:50:00,0,28114986,210120
OK,306,25,894,306,2014-10-01T09:55:00,0,28115435,210120
OK,306,25,894,306,2014-10-01T10:00:00,0,28115847,210120
OK,306,25,894,306,2014-10-01T10:05:00,0,28116296,210120
OK,306,25,894,306,2014-10-01T10:10:00,0,28116704,210120
OK,306,25,894,306,2014-10-01T10:15:00,0,28117153,210120
OK,538,14,894,538,2014-10-01T10:20:00,2,28117578,210120
OK,538,14,894,538,2014-10-01T10:25:00,2,28118027,210120
OK,214,36,894,214,2014-10-01T10:30:00,0,28118472,210120
OK,224,34,894,224,2014-10-01T10:35:00,1,28118919,210120
OK,262,29,894,262,2014-10-01T10:40:00,2,28119363,210120
OK,301,25,894,301,2014-10-01T10:45:00,1,28119811,210120
OK,301,25,894,301,2014-10-01T10:50:00,0,28120259,210120
OK,301,25,894,301,2014-10-01T10:55:00,0,28120708,210120
OK,258,30,894,258,2014-10-01T11:00:00,1,28121091,210120
OK,258,30,894,258,2014-10-01T11:05:00,0,28121540,210120
OK,258,30,894,258,2014-10-01T11:10:00,0,28121978,210120
OK,199,38,894,199,2014-10-01T11:15:00,1,28122427,210120
OK,199,38,894,199,2014-10-01T11:20:00,0,28122868,210120
OK,199,38,894,199,2014-10-01T11:25:00,0,28123317,210120
OK,223,34,894,223,2014-10-01T11:30:00,1,28123749,210120
OK,223,34,894,223,2014-10-01T11:35:00,1,28124198,210120
OK,223,34,894,223,2014-10-01T11:40:00,0,28124600,210120
OK,223,34,894,223,2014-10-01T11:45:00,0,28125049,210120
OK,165,46,894,165,2014-10-01T11:50:00,1,28125478,210120
OK,238,32,894,238,2014-10-01T11:55:00,2,28125927,210120
OK,312,24,894,312,2014-10-01T12:00:00,0,28126279,210120
OK,312,24,894,312,2014-10-01T12:05:00,0,28126728,210120
OK,218,35,894,218,2014-10-01T12:10:00,1,28127177,210120
OK,218,35,894,218,2014-10-01T12:15:00,1,28127626,210120
OK,218,35,894,218,2014-10-01T12:20:00,0,28128054,210120
OK,218,35,894,218,2014-10-01T12:25:00,0,28128503,210120
OK,218,35,894,218,2014-10-01T12:30:00,0,28128938,210120
OK,218,35,894,218,2014-10-01T12:35:00,0,28129387,210120
OK,218,35,894,218,2014-10-01T12:40:00,0,28129821,210120
OK,218,35,894,218,2014-10-01T12:45:00,0,28130270,210120
OK,218,35,894,218,2014-10-01T12:50:00,0,28130698,210120
OK,218,35,894,218,2014-10-01T12:55:00,0,28131147,210120
OK,218,35,894,218,2014-10-01T13:00:00,0,28131584,210120
OK,218,35,894,218,2014-10-01T13:05:00,0,28132033,210120
OK,218,35,894,218,2014-10-01T13:10:00,0,28132471,210120
OK,218,35,894,218,2014-10-01T13:15:00,0,28132918,210120
OK,218,35,894,218,2014-10-01T13:20:00,0,28133356,210120
OK,218,35,894,218,2014-10-01T13:25:00,0,28133805,210120
OK,218,35,894,218,2014-10-01T13:30:00,0,28134244,210120
OK,218,35,894,218,2014-10-01T13:35:00,0,28134693,210120
OK,218,35,894,218,2014-10-01T13:40:00,0,28135112,210120
OK,218,35,894,218,2014-10-01T13:45:00,0,28135561,210120
OK,218,35,894,218,2014-10-01T13:50:00,0,28135998,210120
OK,218,35,894,218,2014-10-01T13:55:00,0,28136447,210120
OK,218,35,894,218,2014-10-01T14:00:00,0,28136887,210120
OK,218,35,894,218,2014-10-01T14:05:00,0,28137336,210120
OK,212,36,894,212,2014-10-01T14:10:00,1,28137770,210120
OK,212,36,894,212,2014-10-01T14:15:00,1,28138219,210120
OK,212,36,894,212,2014-10-01T14:20:00,0,28138647,210120
OK,212,36,894,212,2014-10-01T14:25:00,0,28139096,210120
OK,212,36,894,212,2014-10-01T14:30:00,0,28139507,210120
OK,212,36,894,212,2014-10-01T14:35:00,0,28139956,210120
OK,212,36,894,212,2014-10-01T14:40:00,0,28140398,210120
OK,212,36,894,212,2014-10-01T14:45:00,0,28140847,210120
OK,212,36,894,212,2014-10-01T14:50:00,0,28141273,210120
OK,212,36,894,212,2014-10-01T14:55:00,0,28141722,210120
OK,212,36,894,212,2014-10-01T15:00:00,0,28142150,210120
OK,212,36,894,212,2014-10-01T15:05:00,0,28142599,210120
OK,212,36,894,212,2014-10-01T15:10:00,0,28143026,210120
OK,212,36,894,212,2014-10-01T15:15:00,0,28143475,210120
OK,212,36,894,212,2014-10-01T15:20:00,0,28143923,210120
OK,212,36,894,212,2014-10-01T15:25:00,0,28144372,210120
OK,212,36,894,212,2014-10-01T15:30:00,0,28144794,210120
OK,212,36,894,212,2014-10-01T15:35:00,0,28145207,210120
OK,212,36,894,212,2014-10-01T15:40:00,0,28145656,210120
OK,260,29,894,260,2014-10-01T15:45:00,1,28146105,210120
OK,260,29,894,260,2014-10-01T15:50:00,1,28146554,210120
OK,260,29,894,260,2014-10-01T15:55:00,0,28146963,210120
OK,196,39,894,196,2014-10-01T16:00:00,1,28147406,210120
OK,196,39,894,196,2014-10-01T16:05:00,1,28147855,210120
OK,252,30,894,252,2014-10-01T16:10:00,1,28148256,210120
OK,252,30,894,252,2014-10-01T16:15:00,1,28148705,210120
OK,257,30,894,257,2014-10-01T16:20:00,1,28149144,210120
OK,257,30,894,257,2014-10-01T16:25:00,1,28149593,210120
OK,257,30,894,257,2014-10-01T16:30:00,0,28150019,210120
OK,257,30,894,257,2014-10-01T16:35:00,0,28150468,210120
OK,257,30,894,257,2014-10-01T16:40:00,0,28150886,210120
OK,257,30,894,257,2014-10-01T16:45:00,0,28151335,210120
OK,308,25,894,308,2014-10-01T16:50:00,1,28151784,210120
OK,308,25,894,308,2014-10-01T17:00:00,0,28152233,210120
OK,308,25,894,308,2014-10-01T17:05:00,0,28152679,210120
OK,164,47,894,164,2014-10-01T17:10:00,1,28153126,210120
OK,164,47,894,164,2014-10-01T17:15:00,1,28153575,210120
OK,164,47,894,164,2014-10-01T17:20:00,0,28153985,210120
OK,164,47,894,164,2014-10-01T17:25:00,0,28154434,210120
OK,164,47,894,164,2014-10-01T17:30:00,0,28154876,210120
OK,325,23,894,325,2014-10-01T17:35:00,1,28155324,210120
OK,325,23,894,325,2014-10-01T17:40:00,1,28155742,210120
OK,325,23,894,325,2014-10-01T17:45:00,0,28156191,210120
OK,325,23,894,325,2014-10-01T17:50:00,0,28156640,210120
OK,325,23,894,325,2014-10-01T17:55:00,0,28157078,210120
OK,325,23,894,325,2014-10-01T18:00:00,0,28157508,210120
OK,325,23,894,325,2014-10-01T18:05:00,0,28157956,210120
OK,325,23,894,325,2014-10-01T18:10:00,0,28158400,210120
OK,325,23,894,325,2014-10-01T18:15:00,0,28158846,210120
OK,325,23,894,325,2014-10-01T18:20:00,0,28159292,210120
OK,325,23,894,325,2014-10-01T18:25:00,0,28159627,210120
OK,325,23,894,325,2014-10-01T18:30:00,0,28160076,210120
OK,325,23,894,325,2014-10-01T18:35:00,0,28160525,210120
OK,325,23,894,325,2014-10-01T18:40:00,0,28160963,210120
OK,325,23,894,325,2014-10-01T18:45:00,0,28161412,210120
OK,325,23,894,325,2014-10-01T18:50:00,0,28161829,210120
OK,325,23,894,325,2014-10-01T18:55:00,0,28162278,210120
OK,325,23,894,325,2014-10-01T19:00:00,0,28162673,210120
OK,325,23,894,325,2014-10-01T19:05:00,0,28163111,210120
OK,325,23,894,325,2014-10-01T19:10:00,0,28163559,210120
OK,325,23,894,325,2014-10-01T19:15:00,0,28164008,210120
OK,325,23,894,325,2014-10-01T19:20:00,0,28164439,210120
OK,325,23,894,325,2014-10-01T19:25:00,0,28164888,210120
OK,325,23,894,325,2014-10-01T19:30:00,0,28165313,210120
OK,325,23,894,325,2014-10-01T19:35:00,0,28165761,210120
OK,325,23,894,325,2014-10-01T19:40:00,0,28166202,210120
OK,325,23,894,325,2014-10-01T19:45:00,0,28166564,210120
OK,325,23,894,325,2014-10-01T19:50:00,0,28167013,210120
OK,325,23,894,325,2014-10-01T19:55:00,0,28167442,210120
OK,386,20,894,386,2014-10-01T20:00:00,1,28167875,210120
OK,386,20,894,386,2014-10-01T20:05:00,0,28168324,210120
OK,386,20,894,386,2014-10-01T20:10:00,0,28168769,210120
OK,386,20,894,386,2014-10-01T20:15:00,0,28169218,210120
OK,386,20,894,386,2014-10-01T20:20:00,0,28169666,210120
OK,386,20,894,386,2014-10-01T20:25:00,0,28170092,210120
OK,386,20,894,386,2014-10-01T20:30:00,0,28170537,210120
OK,386,20,894,386,2014-10-01T20:35:00,0,28170985,210120
OK,386,20,894,386,2014-10-01T20:40:00,0,28171422,210120
OK,386,20,894,386,2014-10-01T20:45:00,0,28171868,210120
OK,386,20,894,386,2014-10-01T20:50:00,0,28172316,210120
OK,386,20,894,386,2014-10-01T20:55:00,0,28172762,210120
OK,386,20,894,386,2014-10-01T21:00:00,0,28173208,210120
OK,386,20,894,386,2014-10-01T21:05:00,0,28173657,210120
OK,386,20,894,386,2014-10-01T21:10:00,0,28174098,210120
OK,386,20,894,386,2014-10-01T21:15:00,0,28174547,210120
OK,386,20,894,386,2014-10-01T21:20:00,0,28174973,210120
OK,386,20,894,386,2014-10-01T21:25:00,0,28175369,210120
OK,386,20,894,386,2014-10-01T21:30:00,0,28175818,210120
OK,386,20,894,386,2014-10-01T21:35:00,0,28176267,210120
OK,386,20,894,386,2014-10-01T21:40:00,0,28176716,210120
OK,386,20,894,386,2014-10-01T21:45:00,0,28177073,210120
OK,386,20,894,386,2014-10-01T21:50:00,0,28177512,210120
OK,386,20,894,386,2014-10-01T21:55:00,0,28177958,210120
OK,386,20,894,386,2014-10-01T22:00:00,0,28178407,210120
OK,386,20,894,386,2014-10-01T22:05:00,0,28178854,210120
OK,386,20,894,386,2014-10-01T22:10:00,0,28179288,210120
OK,386,20,894,386,2014-10-01T22:15:00,0,28179731,210120
OK,386,20,894,386,2014-10-01T22:20:00,0,28180178,210120
OK,386,20,894,386,2014-10-01T22:25:00,0,28180576,210120
OK,386,20,894,386,2014-10-01T22:30:00,0,28181025,210120
OK,386,20,894,386,2014-10-01T22:35:00,0,28181449,210120
OK,386,20,894,386,2014-10-01T22:40:00,0,28181897,210120
OK,386,20,894,386,2014-10-01T22:45:00,0,28182344,210120
OK,386,20,894,386,2014-10-01T22:50:00,0,28182793,210120
OK,386,20,894,386,2014-10-01T22:55:00,0,28183210,210120
OK,386,20,894,386,2014-10-01T23:00:00,0,28183643,210120
OK,386,20,894,386,2014-10-01T23:05:00,0,28184088,210120
OK,386,20,894,386,2014-10-01T23:10:00,0,28184537,210120
OK,386,20,894,386,2014-10-01T23:15:00,0,28184972,210120
OK,386,20,894,386,2014-10-01T23:20:00,0,28185420,210120
OK,386,20,894,386,2014-10-01T23:25:00,0,28185851,210120
OK,386,20,894,386,2014-10-01T23:30:00,0,28186243,210120
OK,386,20,894,386,2014-10-01T23:40:00,0,28187090,210120
OK,386,20,894,386,2014-10-01T23:55:00,0,28188422,210120
OK,386,20,894,386,2014-10-02T00:00:00,0,28188858,210120
OK,386,20,894,386,2014-10-02T00:05:00,0,28189307,210120
OK,386,20,894,386,2014-10-02T00:10:00,0,28189729,210120
OK,386,20,894,386,2014-10-02T00:15:00,0,28190178,210120
OK,386,20,894,386,2014-10-02T00:20:00,0,28190531,210120
OK,386,20,894,386,2014-10-02T00:25:00,0,28190980,210120
OK,386,20,894,386,2014-10-02T00:30:00,0,28191429,210120
OK,386,20,894,386,2014-10-02T00:35:00,0,28191735,210120
OK,386,20,894,386,2014-10-02T00:40:00,0,28192184,210120
OK,386,20,894,386,2014-10-02T00:45:00,0,28192617,210120
OK,386,20,894,386,2014-10-02T00:50:00,0,28193061,210120
OK,386,20,894,386,2014-10-02T00:55:00,0,28193428,210120
OK,386,20,894,386,2014-10-02T01:05:00,0,28194326,210120
OK,386,20,894,386,2014-10-02T01:15:00,0,28194775,210120
OK,386,20,894,386,2014-10-02T01:20:00,0,28195460,210120
OK,386,20,894,386,2014-10-02T01:30:00,0,28195909,210120
OK,386,20,894,386,2014-10-02T01:35:00,0,28196642,210120
OK,386,20,894,386,2014-10-02T01:40:00,0,28197065,210120
OK,386,20,894,386,2014-10-02T01:45:00,0,28197514,210120
OK,386,20,894,386,2014-10-02T01:50:00,0,28197962,210120
OK,386,20,894,386,2014-10-02T01:55:00,0,28198410,210120
OK,386,20,894,386,2014-10-02T02:00:00,0,28198859,210120
OK,386,20,894,386,2014-10-02T02:05:00,0,28199233,210120
OK,386,20,894,386,2014-10-02T02:10:00,0,28199673,210120
OK,386,20,894,386,2014-10-02T02:15:00,0,28200115,210120
OK,386,20,894,386,2014-10-02T02:20:00,0,28200558,210120
OK,386,20,894,386,2014-10-02T02:25:00,0,28201007,210120
OK,386,20,894,386,2014-10-02T02:30:00,0,28201438,210120
OK,386,20,894,386,2014-10-02T02:45:00,0,28202336,210120
OK,386,20,894,386,2014-10-02T02:50:00,0,28202778,210120
OK,386,20,894,386,2014-10-02T02:55:00,0,28203226,210120
OK,386,20,894,386,2014-10-02T03:00:00,0,28203661,210120
OK,386,20,894,386,2014-10-02T03:10:00,0,28204110,210120
OK,386,20,894,386,2014-10-02T03:25:00,0,28204559,210120
OK,386,20,894,386,2014-10-02T03:30:00,0,28205008,210120
OK,386,20,894,386,2014-10-02T03:35:00,0,28205436,210120
OK,386,20,894,386,2014-10-02T03:40:00,0,28205883,210120
OK,386,20,894,386,2014-10-02T03:45:00,0,28206266,210120
OK,386,20,894,386,2014-10-02T03:55:00,0,28207164,210120
OK,386,20,894,386,2014-10-02T04:00:00,0,28207584,210120
OK,386,20,894,386,2014-10-02T04:05:00,0,28208032,210120
OK,386,20,894,386,2014-10-02T04:10:00,0,28208459,210120
OK,386,20,894,386,2014-10-02T04:15:00,0,28208908,210120
OK,386,20,894,386,2014-10-02T04:20:00,0,28209346,210120
OK,386,20,894,386,2014-10-02T04:25:00,0,28209795,210120
OK,386,20,894,386,2014-10-02T04:30:00,0,28210218,210120
OK,386,20,894,386,2014-10-02T04:35:00,0,28210667,210120
OK,386,20,894,386,2014-10-02T04:40:00,0,28211092,210120
OK,386,20,894,386,2014-10-02T04:45:00,0,28211536,210120
OK,386,20,894,386,2014-10-02T04:50:00,0,28211914,210120
OK,386,20,894,386,2014-10-02T04:55:00,0,28212363,210120
OK,386,20,894,386,2014-10-02T05:00:00,0,28212792,210120
OK,386,20,894,386,2014-10-02T05:05:00,0,28213241,210120
OK,386,20,894,386,2014-10-02T05:10:00,0,28213679,210120
OK,386,20,894,386,2014-10-02T05:15:00,0,28214128,210120
OK,386,20,894,386,2014-10-02T05:20:00,0,28214541,210120
OK,264,29,894,264,2014-10-02T05:25:00,1,28214990,210120
OK,264,29,894,264,2014-10-02T05:30:00,1,28215406,210120
OK,351,22,894,351,2014-10-02T05:40:00,1,28215855,210120
OK,351,22,894,351,2014-10-02T05:45:00,1,28216634,210120
OK,351,22,894,351,2014-10-02T05:50:00,0,28217081,210120
OK,351,22,894,351,2014-10-02T05:55:00,0,28217530,210120
OK,351,22,894,351,2014-10-02T06:00:00,0,28217969,210120
OK,351,22,894,351,2014-10-02T06:05:00,0,28218418,210120
OK,351,22,894,351,2014-10-02T06:10:00,0,28218838,210120
OK,449,17,894,449,2014-10-02T06:15:00,1,28219287,210120
OK,449,17,894,449,2014-10-02T06:20:00,1,28219660,210120
OK,449,17,894,449,2014-10-02T06:25:00,0,28220109,210120
OK,449,17,894,449,2014-10-02T06:30:00,0,28220543,210120
OK,449,17,894,449,2014-10-02T06:35:00,0,28220992,210120
OK,449,17,894,449,2014-10-02T06:40:00,0,28221375,210120
OK,449,17,894,449,2014-10-02T06:45:00,0,28221659,210120
OK,449,17,894,449,2014-10-02T07:00:00,0,28222253,210120
OK,449,17,894,449,2014-10-02T07:05:00,0,28222702,210120
OK,449,17,894,449,2014-10-02T07:10:00,0,28223133,210120
OK,449,17,894,449,2014-10-02T07:15:00,0,28223569,210120
OK,449,17,894,449,2014-10-02T07:20:00,0,28224016,210120
OK,218,35,894,218,2014-10-02T07:25:00,0,28224371,210120
OK,218,35,894,218,2014-10-02T07:30:00,0,28224820,210120
OK,276,28,894,276,2014-10-02T07:35:00,1,28225269,210120
OK,276,28,894,276,2014-10-02T07:40:00,1,28225591,210120
OK,294,26,894,294,2014-10-02T07:50:00,1,28226481,210120
OK,294,26,894,294,2014-10-02T07:55:00,1,28226930,210120
OK,294,26,894,294,2014-10-02T08:00:00,0,28227345,210120
OK,294,26,894,294,2014-10-02T08:05:00,0,28227794,210120
OK,294,26,894,294,2014-10-02T08:10:00,0,28228153,210120
OK,294,26,894,294,2014-10-02T08:15:00,0,28228602,210120
OK,294,26,894,294,2014-10-02T08:20:00,0,28229012,210120
OK,264,29,894,264,2014-10-02T08:25:00,1,28229461,210120
OK,264,29,894,264,2014-10-02T08:30:00,0,28229811,210120
OK,264,29,894,264,2014-10-02T08:35:00,0,28230260,210120
OK,264,29,894,264,2014-10-02T08:40:00,0,28230627,210120
OK,264,29,894,264,2014-10-02T08:45:00,0,28231075,210120
OK,264,29,894,264,2014-10-02T08:50:00,0,28231498,210120
OK,264,29,894,264,2014-10-02T08:55:00,0,28231947,210120
OK,264,29,894,264,2014-10-02T09:00:00,0,28232289,210120
OK,264,29,894,264,2014-10-02T09:10:00,0,28232738,210120
OK,227,34,894,227,2014-10-02T09:15:00,0,28233187,210120
OK,227,34,894,227,2014-10-02T09:20:00,0,28233611,210120
OK,227,34,894,227,2014-10-02T09:25:00,0,28234060,210120
OK,227,34,894,227,2014-10-02T09:30:00,0,28234393,210120
OK,227,34,894,227,2014-10-02T09:35:00,0,28234842,210120
OK,227,34,894,227,2014-10-02T09:40:00,0,28235269,210120
OK,227,34,894,227,2014-10-02T09:45:00,0,28235718,210120
OK,227,34,894,227,2014-10-02T09:50:00,0,28236161,210120
OK,160,48,894,160,2014-10-02T09:55:00,1,28236608,210120
OK,160,48,894,160,2014-10-02T10:00:00,1,28237011,210120
OK,160,48,894,160,2014-10-02T10:05:00,0,28237459,210120
OK,160,48,894,160,2014-10-02T10:10:00,0,28237907,210120
OK,160,48,894,160,2014-10-02T10:15:00,0,28238354,210120
OK,160,48,894,160,2014-10-02T10:20:00,0,28238795,210120
OK,160,48,894,160,2014-10-02T10:25:00,0,28239244,210120
OK,160,48,894,160,2014-10-02T10:30:00,0,28239674,210120
OK,167,46,894,167,2014-10-02T10:35:00,0,28240123,210120
OK,167,46,894,167,2014-10-02T10:40:00,0,28240567,210120
OK,167,46,894,167,2014-10-02T10:45:00,0,28241016,210120
OK,167,46,894,167,2014-10-02T10:50:00,0,28241448,210120
OK,167,46,894,167,2014-10-02T10:55:00,0,28241896,210120
OK,167,46,894,167,2014-10-02T11:00:00,0,28242292,210120
OK,167,46,894,167,2014-10-02T11:05:00,0,28242741,210120
OK,167,46,894,167,2014-10-02T11:15:00,0,28243190,210120
OK,243,31,894,243,2014-10-02T11:20:00,1,28243953,210120
OK,243,31,894,243,2014-10-02T11:25:00,1,28244382,210120
OK,243,31,894,243,2014-10-02T11:30:00,0,28244831,210120
OK,166,46,894,166,2014-10-02T11:35:00,1,28245280,210120
OK,166,46,894,166,2014-10-02T11:40:00,1,28245686,210120
OK,166,46,894,166,2014-10-02T11:45:00,0,28246135,210120
OK,166,46,894,166,2014-10-02T11:50:00,0,28246572,210120
OK,166,46,894,166,2014-10-02T11:55:00,0,28247021,210120
OK,166,46,894,166,2014-10-02T12:00:00,0,28247467,210120
OK,166,46,894,166,2014-10-02T12:05:00,0,28247897,210120
OK,166,46,894,166,2014-10-02T12:10:00,0,28248346,210120
OK,368,21,894,368,2014-10-02T12:15:00,0,28248793,210120
OK,368,21,894,368,2014-10-02T12:20:00,0,28249221,210120
OK,261,29,894,261,2014-10-02T12:25:00,3,28249665,210120
OK,261,29,894,261,2014-10-02T12:30:00,3,28250084,210120
OK,306,25,894,306,2014-10-02T12:35:00,2,28250482,210120
OK,179,43,894,179,2014-10-02T12:45:00,0,28251262,210120
OK,179,43,894,179,2014-10-02T13:20:00,0,28251807,210120
OK,179,43,894,179,2014-10-02T13:30:00,0,28252391,210120
OK,179,43,894,179,2014-10-02T13:35:00,0,28252833,210120
OK,179,43,894,179,2014-10-02T13:40:00,0,28253250,210120
OK,308,25,894,308,2014-10-02T13:45:00,0,28253699,210120
OK,308,25,894,308,2014-10-02T13:50:00,0,28254104,210120
OK,308,25,894,308,2014-10-02T13:55:00,0,28254425,210120
OK,247,31,894,247,2014-10-02T14:10:00,1,28255002,210120
OK,274,28,894,274,2014-10-02T14:15:00,1,28255451,210120
OK,274,28,894,274,2014-10-02T14:20:00,1,28255879,210120
OK,274,28,894,274,2014-10-02T14:25:00,0,28256328,210120
OK,397,19,894,397,2014-10-02T14:30:00,1,28256756,210120
OK,397,19,894,397,2014-10-02T14:35:00,0,28257205,210120
OK,397,19,894,397,2014-10-02T14:40:00,0,28257646,210120
OK,397,19,894,397,2014-10-02T14:45:00,0,28258094,210120
OK,397,19,894,397,2014-10-02T14:50:00,0,28258527,210120
OK,397,19,894,397,2014-10-02T14:55:00,0,28258973,210120
OK,397,19,894,397,2014-10-02T15:00:00,0,28259422,210120
OK,397,19,894,397,2014-10-02T15:05:00,0,28259869,210120